CQH1097 ZLDH-ZLXY

Flight info

Callsign CQH1097
Flight time N/A
Altitude 31100
Route VIKUP1 VIKUP W191 DNC W565 BIGUX W214 HO HO1Z
Aircraft A320/M-SDE3FGHIRWY/LB1

Departure

Time N/A
Airport Dunhuang Mogao International Airport (ZLDH)

Arrival

Time 2026-05-05 17:37
Airport Xi'an Xianyang International Airport (ZLXY)
Time Latitude Longitude Altitude Speed Heading
2026-05-05 16:42 37.02590 102.49440 31123 ft 483 kts 127°
2026-05-05 16:42 37.00810 102.53003 31129 ft 482 kts 127°
2026-05-05 16:43 36.97252 102.60118 31133 ft 482 kts 127°
2026-05-05 16:43 36.93691 102.67225 31120 ft 482 kts 127°
2026-05-05 16:44 36.90133 102.74307 31116 ft 481 kts 128°
2026-05-05 16:44 36.86591 102.81339 31106 ft 482 kts 127°
2026-05-05 16:45 36.82990 102.88467 31112 ft 483 kts 128°
2026-05-05 16:45 36.79810 102.95885 31079 ft 488 kts 120°
2026-05-05 16:46 36.76956 103.03297 31084 ft 489 kts 121°
2026-05-05 16:46 36.74010 103.10876 31073 ft 488 kts 121°
2026-05-05 16:47 36.71042 103.18492 31077 ft 489 kts 120°
2026-05-05 16:47 36.68072 103.26114 31048 ft 489 kts 120°
2026-05-05 16:48 36.65092 103.33749 31052 ft 490 kts 120°
2026-05-05 16:48 36.62111 103.41376 31054 ft 490 kts 120°
2026-05-05 16:49 36.59121 103.49012 31061 ft 491 kts 120°
2026-05-05 16:49 36.56116 103.56653 31025 ft 493 kts 120°
2026-05-05 16:50 36.53054 103.64291 31021 ft 493 kts 122°
2026-05-05 16:50 36.49669 103.71699 31022 ft 492 kts 125°
2026-05-05 16:51 36.46112 103.78967 31026 ft 493 kts 126°
2026-05-05 16:51 36.42588 103.86284 31024 ft 494 kts 124°
2026-05-05 16:52 36.39145 103.93663 31012 ft 494 kts 124°
2026-05-05 16:52 36.35711 104.01030 31017 ft 493 kts 124°
2026-05-05 16:53 36.32245 104.08371 31024 ft 492 kts 124°
2026-05-05 16:53 36.28782 104.15681 31024 ft 492 kts 124°
2026-05-05 16:54 36.25317 104.22988 31019 ft 492 kts 124°
2026-05-05 16:54 36.21848 104.30296 31011 ft 493 kts 124°
2026-05-05 16:55 36.18368 104.37612 31004 ft 494 kts 124°
2026-05-05 16:55 36.14906 104.44876 31012 ft 494 kts 124°
2026-05-05 16:56 36.11374 104.52260 31005 ft 495 kts 124°
2026-05-05 16:56 36.07863 104.59573 31003 ft 494 kts 124°
2026-05-05 16:57 36.04388 104.66808 31017 ft 493 kts 124°
2026-05-05 16:57 36.00892 104.74078 31018 ft 492 kts 124°
2026-05-05 16:58 35.97397 104.81331 31009 ft 491 kts 124°
2026-05-05 16:58 35.93900 104.88556 31013 ft 490 kts 124°
2026-05-05 16:59 35.90401 104.95775 30987 ft 491 kts 124°
2026-05-05 16:59 35.86899 105.03009 30975 ft 492 kts 124°
2026-05-05 17:00 35.83400 105.10276 30967 ft 493 kts 124°
2026-05-05 17:00 35.79895 105.17538 30973 ft 494 kts 124°
2026-05-05 17:01 35.76383 105.24805 30958 ft 493 kts 124°
2026-05-05 17:01 35.72875 105.32035 30984 ft 492 kts 124°
2026-05-05 17:02 35.69357 105.39257 30950 ft 492 kts 124°
2026-05-05 17:02 35.65835 105.46470 30953 ft 492 kts 124°
2026-05-05 17:03 35.62310 105.53684 30932 ft 492 kts 124°
2026-05-05 17:03 35.58781 105.60896 30929 ft 492 kts 124°
2026-05-05 17:04 35.55252 105.68101 30916 ft 493 kts 122°
2026-05-05 17:04 35.52668 105.75928 30915 ft 498 kts 104°
2026-05-05 17:05 35.51406 105.84301 30904 ft 499 kts 101°
2026-05-05 17:05 35.50154 105.92686 30893 ft 500 kts 101°
2026-05-05 17:06 35.48878 106.01075 30895 ft 500 kts 101°
2026-05-05 17:06 35.47601 106.09469 30883 ft 500 kts 101°
2026-05-05 17:07 35.46319 106.17863 30905 ft 501 kts 101°
2026-05-05 17:07 35.45039 106.26247 30879 ft 501 kts 101°
2026-05-05 17:08 35.43752 106.34642 30893 ft 500 kts 101°
2026-05-05 17:08 35.42462 106.43035 30873 ft 501 kts 101°
2026-05-05 17:09 35.41171 106.51437 30869 ft 502 kts 101°
2026-05-05 17:09 35.39866 106.59834 30877 ft 502 kts 101°
2026-05-05 17:10 35.38543 106.68244 30868 ft 503 kts 101°
2026-05-05 17:10 35.37218 106.76656 30862 ft 503 kts 101°
2026-05-05 17:11 35.35890 106.85077 30577 ft 504 kts 101°
2026-05-05 17:11 35.35221 106.89295 30339 ft 505 kts 101°
2026-05-05 17:11 35.34549 106.93514 30102 ft 505 kts 101°
2026-05-05 17:12 35.33877 106.97730 29875 ft 505 kts 101°
2026-05-05 17:12 35.33204 107.01959 29621 ft 505 kts 101°
2026-05-05 17:12 35.32537 107.06168 29344 ft 503 kts 101°
2026-05-05 17:12 35.31870 107.10373 29074 ft 502 kts 101°
2026-05-05 17:13 35.31205 107.14556 28805 ft 499 kts 101°
2026-05-05 17:13 35.30540 107.18712 28541 ft 496 kts 101°
2026-05-05 17:13 35.29877 107.22848 28283 ft 493 kts 101°
2026-05-05 17:13 35.29219 107.26951 28023 ft 491 kts 101°
2026-05-05 17:14 35.28562 107.31038 27768 ft 488 kts 101°
2026-05-05 17:14 35.27908 107.35102 27516 ft 485 kts 102°
2026-05-05 17:14 35.27264 107.39084 27265 ft 482 kts 102°
2026-05-05 17:14 35.26824 107.41796 27096 ft 480 kts 102°
2026-05-05 17:15 35.25960 107.47082 26772 ft 477 kts 102°
2026-05-05 17:15 35.25312 107.51046 26530 ft 474 kts 102°
2026-05-05 17:15 35.24667 107.54986 26286 ft 472 kts 102°
2026-05-05 17:15 35.24018 107.58908 26052 ft 469 kts 102°
2026-05-05 17:16 35.23366 107.62808 25803 ft 466 kts 102°
2026-05-05 17:16 35.22716 107.66683 25566 ft 464 kts 102°
2026-05-05 17:16 35.22277 107.69291 25408 ft 462 kts 103°
2026-05-05 17:16 35.21418 107.73059 25174 ft 458 kts 111°
2026-05-05 17:17 35.19668 107.77683 24859 ft 452 kts 123°
2026-05-05 17:17 35.17913 107.80849 24630 ft 447 kts 131°
2026-05-05 17:17 35.16552 107.82790 24488 ft 444 kts 135°
2026-05-05 17:17 35.14464 107.85563 24263 ft 442 kts 135°
2026-05-05 17:18 35.12394 107.88319 24037 ft 440 kts 135°
2026-05-05 17:18 35.10338 107.91065 23817 ft 437 kts 135°
2026-05-05 17:18 35.08292 107.93799 23579 ft 434 kts 135°
2026-05-05 17:18 35.06269 107.96500 23058 ft 429 kts 135°
2026-05-05 17:19 35.04264 107.99171 22501 ft 424 kts 135°
2026-05-05 17:19 35.02279 108.01809 21961 ft 420 kts 135°
2026-05-05 17:19 35.00312 108.04417 21440 ft 416 kts 135°
2026-05-05 17:19 34.98364 108.07005 20926 ft 412 kts 135°
2026-05-05 17:20 34.96437 108.09563 20426 ft 408 kts 135°
2026-05-05 17:20 34.94524 108.12101 19937 ft 405 kts 135°
2026-05-05 17:20 34.92625 108.14615 19460 ft 401 kts 135°
2026-05-05 17:20 34.90743 108.17104 18998 ft 398 kts 135°
2026-05-05 17:21 34.88897 108.19545 18551 ft 395 kts 135°
2026-05-05 17:21 34.87039 108.21991 18105 ft 392 kts 135°
2026-05-05 17:21 34.85194 108.24407 17604 ft 388 kts 135°
2026-05-05 17:22 34.81594 108.29103 16659 ft 382 kts 135°
2026-05-05 17:22 34.79783 108.31457 16199 ft 379 kts 135°
2026-05-05 17:22 34.77990 108.33786 15742 ft 376 kts 135°
2026-05-05 17:22 34.76206 108.36104 15298 ft 374 kts 135°
2026-05-05 17:23 34.74439 108.38407 14858 ft 371 kts 135°
2026-05-05 17:23 34.72688 108.40692 14421 ft 368 kts 135°
2026-05-05 17:23 34.70950 108.42961 13992 ft 366 kts 135°
2026-05-05 17:23 34.69220 108.45219 13524 ft 364 kts 135°
2026-05-05 17:24 34.67497 108.47465 13057 ft 362 kts 135°
2026-05-05 17:24 34.65811 108.49661 12915 ft 349 kts 135°
2026-05-05 17:24 34.64183 108.51779 12786 ft 338 kts 136°
2026-05-05 17:24 34.62599 108.53832 12658 ft 327 kts 136°
2026-05-05 17:25 34.61067 108.55816 12520 ft 317 kts 136°
2026-05-05 17:25 34.60057 108.57124 12422 ft 311 kts 136°
2026-05-05 17:25 34.58141 108.59608 12262 ft 298 kts 136°
2026-05-05 17:25 34.56767 108.61393 12115 ft 281 kts 136°
2026-05-05 17:26 34.55453 108.63096 11782 ft 274 kts 136°
2026-05-05 17:26 34.54204 108.64827 11538 ft 273 kts 125°
2026-05-05 17:26 34.53535 108.66976 11275 ft 276 kts 98°
2026-05-05 17:26 34.53727 108.69282 10987 ft 278 kts 70°
2026-05-05 17:27 34.54738 108.71259 10668 ft 277 kts 48°
2026-05-05 17:27 34.56022 108.73007 10358 ft 278 kts 48°
2026-05-05 17:27 34.57302 108.74752 10100 ft 275 kts 48°
2026-05-05 17:27 34.58558 108.76470 9943 ft 269 kts 48°
2026-05-05 17:28 34.59792 108.78166 9681 ft 267 kts 48°
2026-05-05 17:28 34.61022 108.79859 9370 ft 266 kts 48°
2026-05-05 17:28 34.62245 108.81544 9065 ft 265 kts 48°
2026-05-05 17:28 34.63464 108.83218 8753 ft 264 kts 48°
2026-05-05 17:29 34.64677 108.84884 8430 ft 263 kts 48°
2026-05-05 17:29 34.65883 108.86545 8120 ft 261 kts 49°
2026-05-05 17:29 34.67081 108.88198 7817 ft 260 kts 49°
2026-05-05 17:29 34.68275 108.89845 7497 ft 259 kts 49°
2026-05-05 17:30 34.69252 108.91657 7198 ft 256 kts 72°
2026-05-05 17:30 34.69491 108.93752 6881 ft 250 kts 98°
2026-05-05 17:30 34.68970 108.95769 6286 ft 255 kts 124°
2026-05-05 17:30 34.67822 108.97419 5677 ft 259 kts 144°
2026-05-05 17:31 34.66234 108.98484 5050 ft 265 kts 164°
2026-05-05 17:31 34.64403 108.98785 4443 ft 270 kts 184°
2026-05-05 17:31 34.62615 108.98233 4085 ft 261 kts 205°
2026-05-05 17:31 34.61167 108.97014 4007 ft 247 kts 224°
2026-05-05 17:32 34.60060 108.95514 4011 ft 230 kts 228°
2026-05-05 17:32 34.59054 108.94115 4000 ft 212 kts 227°
2026-05-05 17:32 34.58116 108.92811 4022 ft 193 kts 227°
2026-05-05 17:32 34.57284 108.91656 4011 ft 173 kts 227°
2026-05-05 17:33 34.56535 108.90617 4030 ft 157 kts 227°
2026-05-05 17:33 34.55834 108.89645 4013 ft 151 kts 227°
2026-05-05 17:33 34.55151 108.88698 3990 ft 148 kts 226°
2026-05-05 17:33 34.54471 108.87755 3879 ft 148 kts 227°
2026-05-05 17:34 34.53793 108.86816 3720 ft 149 kts 227°
2026-05-05 17:34 34.53110 108.85870 3526 ft 149 kts 227°
2026-05-05 17:34 34.52425 108.84921 3357 ft 150 kts 228°
2026-05-05 17:34 34.51736 108.83966 3175 ft 151 kts 228°
2026-05-05 17:35 34.51049 108.83014 2990 ft 150 kts 226°
2026-05-05 17:35 34.50361 108.82062 2787 ft 150 kts 227°
2026-05-05 17:35 34.49674 108.81110 2584 ft 151 kts 227°
2026-05-05 17:35 34.48992 108.80143 2345 ft 151 kts 229°
2026-05-05 17:36 34.48290 108.79190 2166 ft 152 kts 229°
2026-05-05 17:36 34.47601 108.78227 1956 ft 151 kts 229°
2026-05-05 17:36 34.46905 108.77278 1713 ft 151 kts 230°
2026-05-05 17:36 34.46208 108.76327 1567 ft 150 kts 231°
2026-05-05 17:37 34.45572 108.75439 1529 ft 109 kts 229°
2026-05-05 17:37 34.45260 108.75007 1522 ft 41 kts 229°
2026-05-05 17:37 34.45104 108.74860 1524 ft 20 kts 211°
2026-05-05 17:37 34.45001 108.74801 1525 ft 14 kts 200°
2026-05-05 17:38 34.44915 108.74766 1528 ft 12 kts 198°
2026-05-05 17:38 34.44841 108.74725 1527 ft 11 kts 215°
2026-05-05 17:38 34.44784 108.74676 1527 ft 9 kts 203°
2026-05-05 17:38 34.44727 108.74679 1527 ft 8 kts 155°
2026-05-05 17:39 34.44690 108.74718 1527 ft 7 kts 139°
2026-05-05 17:39 34.44658 108.74753 1525 ft 6 kts 137°
2026-05-05 17:39 34.44636 108.74777 1527 ft 2 kts 137°
2026-05-05 17:39 34.44635 108.74779 1527 ft 0 kts 137°
2026-05-05 17:40 34.44619 108.74797 1527 ft 5 kts 136°
2026-05-05 17:40 34.44605 108.74813 1526 ft 2 kts 137°